Logan, UT

4:59 PM MST on December 09, 2019 (GMT -0700)
Logan-Cache

Weather History for KLGU - October, 2019

Change the Weather History Date:

Saturday, October 19, 2019

  Actual Average Record
Temperature  
Mean Temperature 40 °F -  
Max Temperature 51 °F 62 °F 78 °F (1974)
Min Temperature 33 °F 32 °F 20 °F (1976)
Degree Days  
Heating Degree Days 24    
Moisture  
Dew Point 32 °F    
Average Humidity 80    
Maximum Humidity 96    
Minimum Humidity 50    
Precipitation  
Precipitation 0.07 in - - ()
Sea Level Pressure  
Sea Level Pressure 29.86 in    
Wind  
Wind Speed 7 mph ()    
Max Wind Speed 33 mph    
Max Gust Speed 46 mph    
Visibility 8.1 miles    
Events Rain , Snow , Thunderstorm    
Averages and records for this station are not official NWS values.
T = Trace of Precipitation, MM = Missing Value Source: Averaged Metar Reports

Daily Weather History Graph

Daily Weather History Graph

Search for Another Location

Airport or City:

Astronomy

Oct. 19, 2019 Rise Set
Actual Time 7:44 AM MDT 6:40 PM MDT
Civil Twilight 7:15 AM MDT 7:08 PM MDT
Nautical Twilight 6:43 AM MDT 7:40 PM MDT
Astronomical Twilight 6:11 AM MDT 8:12 PM MDT
Moon 10:48 PM MDT (10/19) 1:23 PM MDT (10/19)
Length of Visible Light 11h 52m
Length of Day
10h 55m
Waning Gibbous, 69% of the Moon is Illuminated
Oct 19
Waning Gibbous
Oct 21
Last Quarter
Oct 27
New
Nov 4
First Quarter
Nov 12
Full

Hourly Weather History & Observations

Time (MDT) Temp. Windchill Dew Point Humidity Pressure Visibility Wind Dir Wind Speed Gust Speed Precip Events Conditions
12:51 AM 37.9 °F 35.5 °F 32.0 °F 79% 29.96 in 10.0 mi ENE 3.5 mph - 0.00 in   Overcast
1:51 AM 37.9 °F - 32.0 °F 79% 29.95 in 10.0 mi Calm Calm - N/A   Overcast
2:51 AM 37.9 °F 34.4 °F 33.1 °F 83% 29.96 in 10.0 mi NW 4.6 mph - N/A   Overcast
3:51 AM 39.0 °F 32.8 °F 34.0 °F 82% 29.96 in 10.0 mi West 9.2 mph - 0.00 in   Overcast
4:51 AM 37.0 °F 31.6 °F 34.0 °F 89% 29.95 in 10.0 mi SW 6.9 mph - 0.00 in   Mostly Cloudy
5:51 AM 37.9 °F 35.5 °F 33.1 °F 83% 29.96 in 10.0 mi South 3.5 mph - N/A   Overcast
6:51 AM 35.1 °F - 30.9 °F 85% 29.96 in 10.0 mi Calm Calm - N/A   Mostly Cloudy
7:51 AM 33.1 °F - 28.9 °F 85% 29.94 in 10.0 mi Calm Calm - 0.00 in   Clear
8:51 AM 37.0 °F - 32.0 °F 82% 29.92 in 10.0 mi Calm Calm - N/A   Clear
9:51 AM 37.9 °F - 33.1 °F 83% 29.91 in 10.0 mi Calm Calm - N/A   Mostly Cloudy
10:51 AM 42.1 °F 38.4 °F 34.0 °F 73% 29.88 in 10.0 mi North 5.8 mph - N/A   Overcast
11:51 AM 44.1 °F 40.8 °F 34.0 °F 68% 29.87 in 10.0 mi NNE 5.8 mph - N/A   Overcast
12:51 PM 48.9 °F - 32.0 °F 52% 29.81 in 10.0 mi Calm Calm - N/A   Overcast
1:51 PM 48.9 °F - 30.9 °F 50% 29.81 in 10.0 mi WSW 19.6 mph 26.5 mph N/A   Overcast
2:51 PM 45.0 °F 37.9 °F 36.0 °F 71% 29.80 in 10.0 mi SSE 16.1 mph - 0.00 in   Overcast
2:58 PM 45.0 °F 38.5 °F 36.0 °F 71% 29.82 in 10.0 mi South 13.8 mph - N/A   Overcast
3:51 PM 44.1 °F - 35.1 °F 71% 29.80 in 10.0 mi Calm Calm - 0.01 in   Overcast
4:49 PM 42.8 °F 33.3 °F 35.6 °F 76% 29.75 in 4.0 mi South 24.2 mph 34.5 mph 0.00 in Rain Light Rain
4:50 PM 42.1 °F 32.3 °F 36.0 °F 79% 29.74 in 4.0 mi South 24.2 mph 34.5 mph 0.00 in Rain Light Rain
4:58 PM 42.1 °F 33.9 °F 36.0 °F 79% 29.75 in 10.0 mi South 17.3 mph 27.6 mph 0.00 in   Mostly Cloudy
5:12 PM 43.0 °F 36.0 °F 36.0 °F 76% 29.75 in 10.0 mi SSE 13.8 mph 21.9 mph 0.00 in   Overcast
5:37 PM 39.9 °F 27.8 °F 33.1 °F 77% 29.81 in 2.0 mi WNW 33.4 mph 46.0 mph 0.01 in Rain Rain
5:41 PM 34.0 °F 20.8 °F 30.9 °F 89% 29.82 in 0.8 mi WNW 27.6 mph 46.0 mph 0.03 in Rain , Thunderstorm Heavy Rain
5:47 PM 33.8 °F 22.8 °F 30.2 °F 87% 29.84 in 0.8 mi WNW 18.4 mph 33.4 mph 0.04 in Rain , Thunderstorm Heavy Rain
5:48 PM 33.8 °F 23.2 °F 30.2 °F 87% 29.84 in 1.0 mi WNW 17.3 mph 33.4 mph 0.05 in Rain , Thunderstorm Heavy Rain
5:51 PM 33.1 °F 22.6 °F 32.0 °F 96% 29.86 in 1.5 mi WNW 16.1 mph 29.9 mph 0.05 in Rain , Thunderstorm Rain
5:53 PM 34.0 °F 25.5 °F 32.0 °F 92% 29.84 in 2.0 mi WNW 11.5 mph 29.9 mph 0.00 in Snow , Thunderstorm Light Snow
5:59 PM 34.0 °F 28.0 °F 32.0 °F 92% 29.85 in 5.0 mi WNW 6.9 mph - 0.00 in Snow , Thunderstorm Light Snow
6:10 PM 34.0 °F - 33.1 °F 96% 29.86 in 8.0 mi Calm Calm - 0.01 in Snow Light Snow
6:37 PM 34.0 °F 25.5 °F 32.0 °F 92% 29.86 in 9.0 mi SE 11.5 mph - 0.01 in   Overcast
6:43 PM 34.0 °F 25.0 °F 32.0 °F 92% 29.85 in 10.0 mi SE 12.7 mph - 0.01 in   Overcast
6:48 PM 33.8 °F 24.3 °F 32.0 °F 93% 29.84 in 10.0 mi ESE 13.8 mph - 0.01 in   Overcast
6:51 PM 35.1 °F 25.5 °F 32.0 °F 89% 29.86 in 10.0 mi ESE 15.0 mph - 0.01 in   Overcast
7:51 PM 37.9 °F 34.4 °F 28.9 °F 70% 29.87 in 10.0 mi Variable 4.6 mph - 0.00 in   Overcast
8:51 PM 39.9 °F 37.8 °F 28.0 °F 63% 29.87 in 10.0 mi SW 3.5 mph - N/A   Overcast
9:51 PM 37.0 °F 32.4 °F 30.0 °F 76% 29.88 in 10.0 mi NE 5.8 mph - N/A   Overcast
10:51 PM 39.0 °F 32.8 °F 28.9 °F 67% 29.88 in 10.0 mi WSW 9.2 mph - N/A   Scattered Clouds
11:51 PM 37.9 °F 33.5 °F 30.0 °F 73% 29.88 in 10.0 mi South 5.8 mph - N/A   Overcast